• MPC Preparation (Info)

  • MPEC 2014-U06 : 2014 TP57

    The following Minor Planet Electronic Circular may be linked-to from your own Web pages, but must not otherwise be redistributed electronically.

    A form allowing access to any MPEC is at the bottom of this page.


    Read MPEC 2014-U05 Read MPEC 2014-U07


    M.P.E.C. 2014-U06                                Issued 2014 Oct. 16, 21:08 UT
    
         The Minor Planet Electronic Circulars contain information on unusual
             minor planets and routine data on comets.  They are published
       on behalf of Commission 20 of the International Astronomical Union by the
              Minor Planet Center, Smithsonian Astrophysical Observatory,
                              Cambridge, MA 02138, U.S.A.
    
                 Prepared using the Tamkin Foundation Computer Network
    
                                  MPC@CFA.HARVARD.EDU
                URL https://www.minorplanetcenter.net/    ISSN 1523-6714
    
                                       2014 TP57
    
    Observations:
         K14T57P  C2014 10 15.21975 00 08 23.19 -03 10 39.2          19.8 VqEU006G96
         K14T57P  C2014 10 15.22534 00 08 25.27 -03 09 35.3          19.4 VqEU006G96
         K14T57P  C2014 10 15.23093 00 08 27.32 -03 08 31.5          19.8 VqEU006G96
         K14T57P  C2014 10 15.23652 00 08 29.37 -03 07 27.4          19.9 VqEU006G96
         K14T57P* C2014 10 15.26785 00 08 40.95 -03 01 27.1          19.9 VqEU006G96
         K14T57P  C2014 10 15.27354 00 08 43.03 -03 00 22.2          19.9 VqEU006G96
         K14T57P  C2014 10 15.27925 00 08 45.15 -02 59 16.4          19.8 VqEU006G96
         K14T57P  C2014 10 15.28494 00 08 47.27 -02 58 10.2          20.0 VqEU006G96
         K14T57P  C2014 10 16.22094 00 16 44.51 +00 16 23.2          19.8 RoEU006926
         K14T57P  C2014 10 16.22295 00 16 45.37 +00 16 50.2          19.6 RoEU006926
         K14T57P  C2014 10 16.22495 00 16 46.24 +00 17 17.2          19.7 RoEU006926
         K14T57P `C2014 10 16.48210 00 19 13.24 +01 21 26.7          19.2 RqEU006D90
         K14T57P `C2014 10 16.48661 00 19 15.37 +01 22 29.6          20.0 RqEU006D90
         K14T57P `C2014 10 16.49112 00 19 17.48 +01 23 33.1          19.3 RqEU006D90
    
    Observer details:
    926 Tenagra II Observatory.  Observers M. Schwartz, P. R. Holvorcem.  0.81-m
        f/7 Ritchey-Chretien + CCD.
    D90 RAS Observatory, Moorook.  Observer K. Hills.  0.41-m f/9 Ritchey-Chretien
        + CCD.
    G96 Mt. Lemmon Survey.  Observer A. D. Grauer.  Measurers E. J. Christensen,
        A. R. Gibbs, A. D. Grauer, R. E. Hill, J. A. Johnson, R. A. Kowalski,
        S. M. Larson, F. C. Shelly.  1.5-m reflector + CCD.
    
    Orbital elements:
    2014 TP57                                                Earth MOID = 0.0206 AU
    Epoch 2014 Dec. 9.0 TT = JDT 2457000.5                  MPC
    M  15.96448              (2000.0)            P               Q
    n   0.46550049     Peri.   21.71470     +0.71708703     -0.69647024
    a   1.6488809      Node    22.49926     +0.62874306     +0.62984099
    e   0.3907728      Incl.    4.00798     +0.30077959     +0.34384522
    P   2.12           H   26.4           G   0.15           U   7
    Residuals in seconds of arc
    141015 G96  0.2-  0.1-    141015 G96  0.1-  0.2-    141016 926  0.3-  0.1+
    141015 G96  0.2+  0.0     141015 G96  0.1-  0.3-    141016 D90  0.3+  0.3+
    141015 G96  0.1+  0.1-    141015 G96  0.1-  0.2+    141016 D90  0.1+  0.2-
    141015 G96  0.0   0.0     141016 926  0.3+  0.0     141016 D90  0.3-  0.2-
    141015 G96  0.3+  0.5+    141016 926  0.1-  0.0
    
    Ephemeris:
    2014 TP57                a,e,i = 1.65, 0.39, 4                   q = 1.0045
    Date    TT    R. A. (2000) Decl.     Delta      r     Elong.  Phase     V
    2014 09 16    23 13 13.1 -24 39 42   0.1335  1.1301   157.6    19.8    23.3
    ...
    2014 10 01    23 20 42.9 -21 59 16   0.07756 1.0693   150.1    27.8    22.2
    ...
    2014 10 09    23 36 56.8 -15 47 18   0.05109 1.0438   150.5    28.1    21.3
    ...
    2014 10 15    00 06 40.5 -03 49 19   0.03347 1.0285   158.3    21.0    20.1
    2014 10 16    00 14 43.3 -00 29 54   0.03092 1.0263   160.7    18.7    19.9
    2014 10 17    00 24 12.0 +03 24 29   0.02854 1.0242   163.5    16.0    19.6
    ...
    2014 10 23    02 17 36.7 +39 36 28   0.02121 1.0137   150.9    28.5    19.3
    ...
    2014 10 31    07 11 20.4 +57 23 14   0.03465 1.0058   110.9    67.3    21.5
    ...
    2014 11 15    09 17 36.4 +47 38 26   0.07756 1.0106   103.8    71.9    23.4
    
    A. U. Tomatic                (C) Copyright 2014 MPC           M.P.E.C. 2014-U06
    

    Read MPEC 2014-U05 Read MPEC 2014-U07


    MPEC number:

    Enter an MPEC number in one of the following forms:

    • 1997-B01 (the full form)
    • J97B01 (the packed version of the full form)
    • B01 (the abbreviated form)